Time,TemperatureF,DewpointF,PressureIn,WindDirection,WindDirectionDegrees,WindSpeedMPH,WindSpeedGustMPH,Humidity,HourlyPrecipIn,Conditions,Clouds,dailyrainin,SolarRadiationWatts/m^2,SoftwareType,DateUTC
2013-02-11 00:02:00,47.0,47.0,-100.00,SSW,202,3.0,9.0,99,0.03,,,1.04,0.000000,,2013-02-11 05:02:00,
2013-02-11 00:32:00,48.0,47.0,-100.00,SSW,206,4.0,9.0,98,0.00,,,1.04,0.000000,,2013-02-11 05:32:00,
2013-02-11 00:42:00,48.0,47.0,-100.00,SSW,206,4.0,9.0,98,0.00,,,1.04,0.000000,,2013-02-11 05:42:00,
2013-02-11 00:53:00,48.0,47.0,-100.00,SSW,206,4.0,9.0,98,0.00,,,1.04,0.000000,,2013-02-11 05:53:00,
2013-02-11 01:02:00,48.0,47.0,-100.00,SSW,206,4.0,9.0,98,0.00,,,1.04,0.000000,,2013-02-11 06:02:00,
2013-02-11 01:32:00,48.0,48.0,-100.00,SW,232,3.0,6.0,99,0.06,,,1.10,0.000000,,2013-02-11 06:32:00,
2013-02-11 01:42:00,48.0,48.0,-100.00,SW,232,3.0,6.0,99,0.06,,,1.10,0.000000,,2013-02-11 06:42:00,
2013-02-11 01:52:00,48.0,48.0,-100.00,SW,232,3.0,6.0,99,0.06,,,1.10,0.000000,,2013-02-11 06:52:00,
2013-02-11 02:02:00,48.0,48.0,-100.00,SW,232,3.0,6.0,99,0.06,,,1.10,0.000000,,2013-02-11 07:02:00,
2013-02-11 02:32:00,48.0,48.0,-100.00,SSW,211,3.0,6.0,99,0.04,,,1.14,0.000000,,2013-02-11 07:32:00,
2013-02-11 02:42:00,48.0,48.0,-100.00,SSW,211,3.0,6.0,99,0.04,,,1.14,0.000000,,2013-02-11 07:42:00,
2013-02-11 02:52:00,48.0,48.0,-100.00,SSW,211,3.0,6.0,99,0.04,,,1.14,0.000000,,2013-02-11 07:52:00,
2013-02-11 03:01:00,48.0,48.0,-100.00,SSW,211,3.0,6.0,99,0.04,,,1.14,0.000000,,2013-02-11 08:01:00,
2013-02-11 03:32:00,48.0,48.0,-100.00,West,276,2.0,5.0,99,0.01,,,1.15,0.000000,,2013-02-11 08:32:00,
2013-02-11 03:42:00,48.0,48.0,-100.00,West,276,2.0,5.0,99,0.01,,,1.15,0.000000,,2013-02-11 08:42:00,
2013-02-11 03:52:00,48.0,48.0,-100.00,West,276,2.0,5.0,99,0.01,,,1.15,0.000000,,2013-02-11 08:52:00,
2013-02-11 04:02:00,48.0,48.0,-100.00,West,276,2.0,5.0,99,0.01,,,1.15,0.000000,,2013-02-11 09:02:00,
2013-02-11 04:32:00,48.0,48.0,-100.00,WNW,292,2.0,3.0,100,0.06,,,1.21,0.000000,,2013-02-11 09:32:00,
2013-02-11 04:42:00,48.0,48.0,-100.00,WNW,292,2.0,3.0,100,0.06,,,1.21,0.000000,,2013-02-11 09:42:00,
2013-02-11 04:52:00,48.0,48.0,-100.00,WNW,292,2.0,3.0,100,0.06,,,1.21,0.000000,,2013-02-11 09:52:00,
2013-02-11 05:02:00,48.0,48.0,-100.00,WNW,292,2.0,3.0,100,0.06,,,1.21,0.000000,,2013-02-11 10:02:00,
2013-02-11 05:32:00,49.0,49.0,-100.00,NNW,337,2.0,3.0,100,0.12,,,1.33,0.000000,,2013-02-11 10:32:00,
2013-02-11 05:42:00,49.0,49.0,-100.00,NNW,337,2.0,3.0,100,0.12,,,1.33,0.000000,,2013-02-11 10:42:00,
2013-02-11 05:52:00,49.0,49.0,-100.00,NNW,337,2.0,3.0,100,0.12,,,1.33,0.000000,,2013-02-11 10:52:00,
2013-02-11 06:02:00,49.0,49.0,-100.00,NNW,337,2.0,3.0,100,0.12,,,1.33,0.000000,,2013-02-11 11:02:00,
2013-02-11 06:32:00,49.0,49.0,-100.00,NNW,330,1.0,4.0,100,0.08,,,1.41,0.000000,,2013-02-11 11:32:00,
2013-02-11 06:42:00,49.0,49.0,-100.00,NNW,330,1.0,4.0,100,0.08,,,1.41,0.000000,,2013-02-11 11:42:00,
2013-02-11 06:52:00,49.0,49.0,-100.00,NNW,330,1.0,4.0,100,0.08,,,1.41,0.000000,,2013-02-11 11:52:00,
2013-02-11 07:03:00,49.0,49.0,-100.00,NNW,330,1.0,4.0,100,0.08,,,1.41,0.000000,,2013-02-11 12:03:00,
2013-02-11 07:32:00,49.0,49.0,-100.00,NE,36,2.0,3.0,100,0.01,,,-99.99,0.000000,,2013-02-11 12:32:00,
2013-02-11 07:42:00,49.0,49.0,-100.00,NE,36,2.0,3.0,100,0.01,,,-99.99,0.000000,,2013-02-11 12:42:00,
2013-02-11 07:52:00,49.0,49.0,-100.00,NE,36,2.0,3.0,100,0.01,,,-99.99,0.000000,,2013-02-11 12:52:00,
2013-02-11 08:02:00,49.0,49.0,-100.00,NE,36,2.0,3.0,100,0.01,,,-99.99,0.000000,,2013-02-11 13:02:00,
2013-02-11 08:33:00,49.0,49.0,-100.00,NE,38,1.0,2.0,100,0.07,,,-99.99,3.000000,,2013-02-11 13:33:00,
2013-02-11 08:42:00,49.0,49.0,-100.00,NE,38,1.0,2.0,100,0.07,,,-99.99,3.000000,,2013-02-11 13:42:00,
2013-02-11 08:52:00,49.0,49.0,-100.00,NE,38,1.0,2.0,100,0.07,,,-99.99,3.000000,,2013-02-11 13:52:00,
2013-02-11 09:02:00,49.0,49.0,-100.00,NE,38,1.0,2.0,100,0.07,,,-99.99,3.000000,,2013-02-11 14:02:00,
2013-02-11 09:33:00,50.0,50.0,-100.00,WNW,299,1.0,4.0,100,0.05,,,-99.99,13.000000,,2013-02-11 14:33:00,
2013-02-11 09:42:00,50.0,50.0,-100.00,WNW,299,1.0,4.0,100,0.05,,,-99.99,13.000000,,2013-02-11 14:42:00,
2013-02-11 09:53:00,50.0,50.0,-100.00,WNW,299,1.0,4.0,100,0.05,,,-99.99,13.000000,,2013-02-11 14:53:00,
2013-02-11 10:02:00,50.0,50.0,-100.00,WNW,299,1.0,4.0,100,0.05,,,-99.99,13.000000,,2013-02-11 15:02:00,
2013-02-11 10:32:00,51.0,51.0,-100.00,South,185,1.0,3.0,100,0.01,,,1.55,52.000000,,2013-02-11 15:32:00,
2013-02-11 10:42:00,51.0,51.0,-100.00,South,185,1.0,3.0,100,0.01,,,1.55,52.000000,,2013-02-11 15:42:00,
2013-02-11 10:52:00,51.0,51.0,-100.00,South,185,1.0,3.0,100,0.01,,,1.55,52.000000,,2013-02-11 15:52:00,
2013-02-11 11:02:00,51.0,51.0,-100.00,South,185,1.0,3.0,100,0.01,,,1.55,52.000000,,2013-02-11 16:02:00,
2013-02-11 11:32:00,52.0,52.0,-100.00,NNE,21,2.0,7.0,100,0.00,,,1.55,53.000000,,2013-02-11 16:32:00,
2013-02-11 11:42:00,52.0,52.0,-100.00,NNE,21,2.0,7.0,100,0.00,,,1.55,53.000000,,2013-02-11 16:42:00,
2013-02-11 11:53:00,52.0,52.0,-100.00,NNE,21,2.0,7.0,100,0.00,,,1.55,53.000000,,2013-02-11 16:53:00,
2013-02-11 12:02:00,52.0,52.0,-100.00,NNE,21,2.0,7.0,100,0.00,,,1.55,53.000000,,2013-02-11 17:02:00,
2013-02-11 12:32:00,54.0,51.0,-100.00,NNW,346,3.0,9.0,91,0.00,,,1.55,71.000000,,2013-02-11 17:32:00,
2013-02-11 12:42:00,54.0,51.0,-100.00,NNW,346,3.0,9.0,91,0.00,,,1.55,71.000000,,2013-02-11 17:42:00,
2013-02-11 12:53:00,54.0,51.0,-100.00,NNW,346,3.0,9.0,91,0.00,,,1.55,71.000000,,2013-02-11 17:53:00,
2013-02-11 13:02:00,54.0,51.0,-100.00,NNW,346,3.0,9.0,91,0.00,,,1.55,71.000000,,2013-02-11 18:02:00,
2013-02-11 13:32:00,54.0,53.0,-100.00,West,261,3.0,9.0,96,0.00,,,1.55,88.000000,,2013-02-11 18:32:00,
2013-02-11 13:42:00,54.0,53.0,-100.00,West,261,3.0,9.0,96,0.00,,,1.55,88.000000,,2013-02-11 18:42:00,
2013-02-11 13:54:00,54.0,53.0,-100.00,West,261,3.0,9.0,96,0.00,,,1.55,88.000000,,2013-02-11 18:54:00,
2013-02-11 14:02:00,54.0,53.0,-100.00,West,261,3.0,9.0,96,0.00,,,1.55,88.000000,,2013-02-11 19:02:00,
2013-02-11 15:32:00,55.0,46.0,-100.00,SSW,207,2.0,9.0,71,-99.99,,,1.55,133.000000,,2013-02-11 20:32:00,
2013-02-11 15:42:00,55.0,46.0,-100.00,SSW,207,2.0,9.0,71,-99.99,,,1.55,133.000000,,2013-02-11 20:42:00,
2013-02-11 15:52:00,55.0,46.0,-100.00,SSW,207,2.0,9.0,71,-99.99,,,1.55,133.000000,,2013-02-11 20:52:00,
2013-02-11 16:02:00,55.0,46.0,-100.00,SSW,207,2.0,9.0,71,-99.99,,,1.55,133.000000,,2013-02-11 21:02:00,
2013-02-11 16:32:00,53.0,45.0,-100.00,NNW,348,2.0,5.0,75,0.00,,,1.52,78.000000,,2013-02-11 21:32:00,
2013-02-11 16:42:00,53.0,45.0,-100.00,NNW,348,2.0,5.0,75,0.00,,,1.52,78.000000,,2013-02-11 21:42:00,
2013-02-11 16:52:00,53.0,45.0,-100.00,NNW,348,2.0,5.0,75,0.00,,,1.52,78.000000,,2013-02-11 21:52:00,
2013-02-11 17:02:00,53.0,45.0,-100.00,NNW,348,2.0,5.0,75,0.00,,,1.52,78.000000,,2013-02-11 22:02:00,
2013-02-11 17:32:00,52.0,41.0,-100.00,NNW,342,3.0,12.0,67,0.01,,,1.46,56.000000,,2013-02-11 22:32:00,
2013-02-11 18:02:00,52.0,41.0,-100.00,NNW,342,3.0,12.0,67,0.01,,,1.46,56.000000,,2013-02-11 23:02:00,
2013-02-11 18:32:00,52.0,39.0,-100.00,NNW,334,3.0,10.0,61,0.00,,,1.16,24.000000,,2013-02-11 23:32:00,
2013-02-11 19:32:00,49.0,37.0,-100.00,NW,325,2.0,5.0,62,0.00,,,-99.99,1.000000,,2013-02-12 00:32:00,
2013-02-11 20:32:00,47.0,38.0,-100.00,WNW,299,2.0,7.0,72,0.00,,,-99.99,0.000000,,2013-02-12 01:32:00,
2013-02-11 21:02:00,47.0,38.0,-100.00,WNW,299,2.0,7.0,72,0.00,,,-99.99,0.000000,,2013-02-12 02:02:00,
2013-02-11 21:32:00,48.0,39.0,-100.00,WNW,290,4.0,6.0,70,0.00,,,0.64,0.000000,,2013-02-12 02:32:00,
2013-02-11 21:42:00,48.0,39.0,-100.00,WNW,290,4.0,6.0,70,0.00,,,0.64,0.000000,,2013-02-12 02:42:00,
2013-02-11 21:53:00,48.0,39.0,-100.00,WNW,290,4.0,6.0,70,0.00,,,0.64,0.000000,,2013-02-12 02:53:00,
2013-02-11 22:02:00,48.0,39.0,-100.00,WNW,290,4.0,6.0,70,0.00,,,0.64,0.000000,,2013-02-12 03:02:00,
2013-02-11 22:32:00,48.0,38.0,-100.00,West,259,4.0,7.0,67,0.00,,,0.55,0.000000,,2013-02-12 03:32:00,
2013-02-11 22:42:00,48.0,38.0,-100.00,West,259,4.0,7.0,67,0.00,,,0.55,0.000000,,2013-02-12 03:42:00,
2013-02-11 22:52:00,48.0,38.0,-100.00,West,259,4.0,7.0,67,0.00,,,0.55,0.000000,,2013-02-12 03:52:00,
2013-02-11 23:01:00,48.0,38.0,-100.00,West,259,4.0,7.0,67,0.00,,,0.55,0.000000,,2013-02-12 04:01:00,
2013-02-11 23:32:00,49.0,35.0,-100.00,WNW,302,5.0,9.0,58,0.00,,,0.52,0.000000,,2013-02-12 04:32:00,